STARLINK-3640, 51988

Orbit data source: Space-Track

STARLINK-3640, 51988 is a payload satellite owned by SpaceX/Seattle (US) in LEO that was launched on Wed, 09 Mar 2022 UTC via an FALCON 9 launch vehicle from the Air Force Eastern Test Range (AFETR). Payload-class satellites include a variety of spacecraft equipped with specific instruments for various scientific and technological missions. These include communications satellites like Starlink; space stations such as the ISS; scientific satellites like the Hubble; Earth observation satellites from companies like Planet Labs, Umbra, and HawkEye 360; GPS; miniature CubeSats for education and research; and military/defense satellites.

Loading next visibility...
Identifier
51988, 2022-025AJ
Orbit
LEO
Country
Flag of USUS
Related business
Manufacturer
SpaceX/Seattle
Mission
Operational Commercial Communications
Bus & Motor
STARLINK, Unknown motor
Mass
297 kg wet, ~275 kg dry
Launch date (UTC)
2022-03-09 (4 years ago)
Launch vehicle
FALCON 9
Launch site
Air Force Eastern Test Range (AFETR)
Object type
Payload
Rocket body
Debris
Shape & HBR
Box + 1 Pan, 10.1 m
Radar Cross Section
13.562 m², Large (>1 m²)

Expand to show TLE details & history
Last TLE update: 17 hours ago

TLE from 17 hours ago
0 STARLINK-3640
1 51988U 22025AJ  25346.65684102 -.00001769  00000-0 -93057-4 0  9997
2 51988  53.2192  69.8265 0001355  89.6710 270.4437 15.08839010207928
Epoch: 2025-12-12T15:45Z
TLE epoch observation values (Epoch: 2025-12-12T15:45:51.064Z)
Latitude
-0.00004°
Longitude
111.76838°
Altitude
540.637 km
Speed
7.593 km/s
True Right ascension
04h 39m 18s
True Declination
0° 00' 00"
Sunlit
Object was in full shadow at epoch
Visualization orbit readout
Latitude
Unknown
Longitude
Unknown
Altitude
Unknown
Speed
Unknown
Apparent Right ascension
Unknown
Apparent Declination
Unknown
Sunlit
N/A
Visualization observer readout
Local Sidereal Time
07:29:42
Azimuth
Unknown
Elevation
Unknown
Doppler factor
Unknown
Orbital elements
Apogee altitude
540.928 km
Perigee altitude
539.054 km
Semi-major axis
6,918.128 km
Eccentricity
0.00014
Inclination
53.2192°
RAAN
69.8265°
Arg. of periapsis
89.671°
True anomaly
270.42817°
Mean anomaly
270.4437°
Eccentric anomaly
270.43594°
Mean motion
3.7719 °/min
Orbital period
95.44 mins
BSTAR
-0.000093057
Loading maneuver chart data...
Computing Atmospheric mass density...
Loading historical data...
Loading historical data...
Loading historical data...
Loading historical data...
Loading historical data...
Loading historical data...
Loading historical data...

Documentation

Showing up to 5 results
|